When you browse on this site, cookies collect data to enhance your experience and personalize the content and advertising you see.
Visit our Privacy Policy to learn more. By continuing to use the site, you agree to this use of cookies and data.
  • en France
  • Liste des pays
  • À 7 jours
  • Température de l'eau
  • Carte satellitaire
  • Carte météo
  • Widgets météo
  • user-avatar
    Se connecter

    Météo par heure à Linz

    Ce jour, 11 Décembre, Mardi

    Heure Température Précipitation Vent Pression Humidité
    00:00 0°C° 0.2 mm 5 m/s 734 mmHg 86%
    01:00 0°C° 0.2 mm 5 m/s 734 mmHg 86%
    02:00 0°C° 0.2 mm 5 m/s 734 mmHg 85%
    03:00 -1°C° 0.2 mm 5 m/s 734 mmHg 85%
    04:00 -1°C° 0.2 mm 5 m/s 734 mmHg 85%
    05:00 -1°C° 0.3 mm 5 m/s 734 mmHg 85%
    06:00 -1°C° 0.3 mm 6 m/s 734 mmHg 86%
    07:00 -1°C° 0.3 mm 6 m/s 734 mmHg 86%
    08:00 -1°C° 0.3 mm 6 m/s 734 mmHg 85%
    09:00 -1°C° 0.3 mm 6 m/s 734 mmHg 84%
    10:00 -1°C° 0.3 mm 6 m/s 734 mmHg 83%
    11:00 -1°C° 0.2 mm 7 m/s 734 mmHg 82%
    12:00 0°C° 0.2 mm 7 m/s 734 mmHg 81%
    13:00 0°C° 0.2 mm 7 m/s 734 mmHg 80%
    14:00 +1°C° 0.2 mm 6 m/s 734 mmHg 80%
    15:00 -1°C° 0.2 mm 6 m/s 734 mmHg 81%
    16:00 -1°C° 0.2 mm 6 m/s 735 mmHg 82%
    17:00 -1°C° 0.2 mm 6 m/s 735 mmHg 83%
    18:00 -1°C° 0.2 mm 6 m/s 735 mmHg 84%
    19:00 0°C° 0.2 mm 5 m/s 735 mmHg 85%
    20:00 0°C° 0.3 mm 5 m/s 735 mmHg 86%
    21:00 0°C° 0.3 mm 5 m/s 735 mmHg 87%
    22:00 -1°C° 0.3 mm 5 m/s 736 mmHg 87%
    23:00 -1°C° 0.4 mm 5 m/s 736 mmHg 88%

    Demain, 12 Décembre, Mercredi

    Heure Température Précipitation Vent Pression Humidité
    00:00 -1°C° 0.4 mm 5 m/s 736 mmHg 89%
    01:00 -1°C° 0.4 mm 5 m/s 736 mmHg 89%
    02:00 -1°C° 0.5 mm 5 m/s 736 mmHg 90%
    03:00 -1°C° 0.5 mm 4 m/s 736 mmHg 90%
    04:00 -1°C° 0.5 mm 4 m/s 736 mmHg 91%
    05:00 -1°C° 0.5 mm 4 m/s 736 mmHg 91%
    06:00 -1°C° 0.5 mm 4 m/s 736 mmHg 92%
    07:00 -2°C° 0.5 mm 4 m/s 736 mmHg 92%
    08:00 0°C° 0.4 mm 3 m/s 736 mmHg 92%
    09:00 0°C° 0.4 mm 3 m/s 737 mmHg 91%
    10:00 0°C° 0.4 mm 3 m/s 737 mmHg 91%
    11:00 0°C° 0.2 mm 3 m/s 737 mmHg 90%
    12:00 +1°C° 0.2 mm 2 m/s 736 mmHg 90%
    13:00 +2°C° 0.2 mm 2 m/s 736 mmHg 89%
    14:00 +1°C° 0.1 mm 2 m/s 736 mmHg 90%
    15:00 +1°C° 0.1 mm 2 m/s 736 mmHg 92%
    16:00 +1°C° 0.1 mm 1 m/s 736 mmHg 93%
    17:00 +1°C° 0.2 mm 1 m/s 736 mmHg 94%
    18:00 0°C° 0.2 mm 1 m/s 736 mmHg 94%
    19:00 0°C° 0.2 mm 1 m/s 737 mmHg 94%
    20:00 0°C° 0.2 mm 1 m/s 737 mmHg 94%
    21:00 -1°C° 0.2 mm 1 m/s 737 mmHg 93%
    22:00 -1°C° 0.2 mm 1 m/s 737 mmHg 93%
    23:00 -1°C° 0.1 mm 1 m/s 737 mmHg 93%

    Après-demain, 13 Décembre, Jeudi

    Heure Température Précipitation Vent Pression Humidité
    00:00 -1°C° 0.1 mm 1 m/s 737 mmHg 93%
    01:00 -2°C° 0.1 mm 1 m/s 737 mmHg 93%
    02:00 -2°C° 0 mm 1 m/s 736 mmHg 92%
    03:00 -2°C° 0 mm 1 m/s 736 mmHg 92%
    04:00 -3°C° 0 mm 1 m/s 736 mmHg 92%
    05:00 -3°C° 0 mm 1 m/s 736 mmHg 92%
    06:00 -4°C° 0 mm 1 m/s 736 mmHg 91%
    07:00 -4°C° 0 mm 1 m/s 736 mmHg 91%
    08:00 -5°C° 0 mm 2 m/s 736 mmHg 89%
    09:00 -4°C° 0 mm 2 m/s 735 mmHg 87%
    10:00 -3°C° 0 mm 2 m/s 735 mmHg 85%
    11:00 -2°C° 0 mm 2 m/s 735 mmHg 84%
    12:00 -1°C° 0 mm 3 m/s 734 mmHg 82%
    13:00 -1°C° 0 mm 3 m/s 734 mmHg 81%
    14:00 -1°C° 0 mm 3 m/s 734 mmHg 83%
    15:00 -2°C° 0 mm 3 m/s 734 mmHg 86%
    16:00 -3°C° 0 mm 2 m/s 734 mmHg 89%
    17:00 -3°C° 0 mm 2 m/s 734 mmHg 89%
    18:00 -4°C° 0 mm 2 m/s 735 mmHg 89%
    19:00 -4°C° 0 mm 2 m/s 735 mmHg 90%
    20:00 -5°C° 0 mm 2 m/s 735 mmHg 90%
    21:00 -5°C° 0 mm 2 m/s 735 mmHg 90%
    22:00 -5°C° 0 mm 2 m/s 736 mmHg 90%
    23:00 -5°C° 0 mm 2 m/s 736 mmHg 90%

    14 Décembre, Vendredi

    Heure Température Précipitation Vent Pression Humidité
    00:00 -6°C° 0 mm 2 m/s 736 mmHg 90%
    01:00 -6°C° 0 mm 2 m/s 736 mmHg 90%
    02:00 -6°C° 0 mm 2 m/s 736 mmHg 89%
    03:00 -6°C° 0 mm 2 m/s 736 mmHg 89%
    04:00 -6°C° 0 mm 2 m/s 735 mmHg 88%
    05:00 -6°C° 0 mm 2 m/s 736 mmHg 88%
    06:00 -6°C° 0 mm 2 m/s 736 mmHg 88%
    07:00 -6°C° 0 mm 2 m/s 736 mmHg 87%
    08:00 -5°C° 0 mm 2 m/s 736 mmHg 85%
    09:00 -4°C° 0 mm 2 m/s 736 mmHg 83%
    10:00 -3°C° 0 mm 2 m/s 736 mmHg 81%
    11:00 -2°C° 0 mm 2 m/s 736 mmHg 80%
    12:00 -1°C° 0 mm 2 m/s 736 mmHg 79%
    13:00 -1°C° 0 mm 2 m/s 736 mmHg 78%
    14:00 -1°C° 0 mm 2 m/s 736 mmHg 82%
    15:00 0°C° 0 mm 1 m/s 736 mmHg 86%
    16:00 -1°C° 0 mm 1 m/s 736 mmHg 90%
    17:00 -2°C° 0 mm 1 m/s 737 mmHg 90%
    18:00 -3°C° 0 mm 1 m/s 737 mmHg 90%
    19:00 -3°C° 0 mm 1 m/s 738 mmHg 91%
    20:00 -3°C° 0 mm 1 m/s 738 mmHg 90%
    21:00 -4°C° 0 mm 1 m/s 738 mmHg 89%
    22:00 -4°C° 0 mm 1 m/s 739 mmHg 88%
    23:00 -4°C° 0 mm 1 m/s 739 mmHg 88%

    15 Décembre, Samedi

    Heure Température Précipitation Vent Pression Humidité
    00:00 -4°C° 0 mm 1 m/s 739 mmHg 87%
    01:00 -4°C° 0 mm 1 m/s 739 mmHg 86%
    02:00 -4°C° 0 mm 1 m/s 739 mmHg 86%
    03:00 -6°C° 0 mm 1 m/s 739 mmHg 85%
    04:00 -6°C° 0 mm 1 m/s 740 mmHg 84%
    05:00 -6°C° 0 mm 1 m/s 740 mmHg 84%
    06:00 -6°C° 0 mm 1 m/s 740 mmHg 84%
    07:00 -6°C° 0 mm 1 m/s 741 mmHg 83%
    08:00 -4°C° 0 mm 1 m/s 741 mmHg 82%
    09:00 -3°C° 0 mm 1 m/s 741 mmHg 80%
    10:00 -2°C° 0 mm 1 m/s 741 mmHg 78%
    11:00 -1°C° 0 mm 1 m/s 741 mmHg 76%
    12:00 0°C° 0 mm 1 m/s 741 mmHg 74%
    13:00 +1°C° 0 mm 1 m/s 741 mmHg 71%
    14:00 -1°C° 0 mm 0 m/s 741 mmHg 76%
    15:00 -2°C° 0 mm 0 m/s 741 mmHg 80%
    16:00 -3°C° 0 mm 0 m/s 741 mmHg 85%
    17:00 -4°C° 0 mm 0 m/s 741 mmHg 85%
    18:00 -3°C° 0 mm 1 m/s 741 mmHg 85%
    19:00 -4°C° 0 mm 1 m/s 742 mmHg 85%
    20:00 -4°C° 0 mm 1 m/s 742 mmHg 84%
    21:00 -4°C° 0 mm 1 m/s 742 mmHg 84%
    22:00 -4°C° 0 mm 1 m/s 742 mmHg 83%
    23:00 -4°C° 0 mm 1 m/s 741 mmHg 82%

    16 Décembre, Dimanche

    Heure Température Précipitation Vent Pression Humidité
    00:00 -4°C° 0 mm 1 m/s 741 mmHg 81%
    01:00 -4°C° 0 mm 1 m/s 741 mmHg 80%
    02:00 -4°C° 0 mm 1 m/s 741 mmHg 79%
    03:00 -4°C° 0 mm 1 m/s 740 mmHg 78%
    04:00 -4°C° 0 mm 1 m/s 740 mmHg 77%
    05:00 -4°C° 0 mm 1 m/s 740 mmHg 76%
    06:00 -3°C° 0 mm 1 m/s 740 mmHg 75%
    07:00 -3°C° 0 mm 1 m/s 740 mmHg 74%
    08:00 -2°C° 0 mm 1 m/s 740 mmHg 73%
    09:00 0°C° 0 mm 1 m/s 740 mmHg 73%
    10:00 +1°C° 0 mm 1 m/s 740 mmHg 72%
    11:00 +1°C° 0.1 mm 1 m/s 739 mmHg 73%
    12:00 +2°C° 0.1 mm 1 m/s 739 mmHg 74%
    13:00 +3°C° 0.1 mm 1 m/s 738 mmHg 76%
    14:00 +2°C° 0.2 mm 1 m/s 738 mmHg 79%
    15:00 +2°C° 0.2 mm 1 m/s 738 mmHg 83%
    16:00 +2°C° 0.2 mm 1 m/s 737 mmHg 87%
    17:00 +2°C° 0.2 mm 1 m/s 737 mmHg 88%
    18:00 +2°C° 0.2 mm 1 m/s 737 mmHg 89%
    19:00 +2°C° 0.2 mm 1 m/s 737 mmHg 90%
    20:00 +2°C° 0.3 mm 1 m/s 737 mmHg 91%
    21:00 +3°C° 0.3 mm 1 m/s 737 mmHg 92%
    22:00 +3°C° 0.3 mm 1 m/s 737 mmHg 92%
    23:00 +3°C° 1.1 mm 1 m/s 737 mmHg 93%
    Voir plus